TimeAKDT,TemperatureF,Dew PointF,Humidity,Sea Level PressureIn,VisibilityMPH,Wind Direction,Wind SpeedMPH,Gust SpeedMPH,PrecipitationIn,Events,Conditions,WindDirDegrees,DateUTC
12:16 AM,44.6,42.8,93,29.57,5.0,NE,17.3,-,N/A,,Overcast,50,2013-08-08 08:16:00
12:36 AM,44.6,42.8,93,29.57,5.0,NE,18.4,-,N/A,,Overcast,40,2013-08-08 08:36:00
12:56 AM,44.6,42.8,93,29.58,5.0,NE,20.7,-,N/A,,Overcast,40,2013-08-08 08:56:00
1:16 AM,44.6,42.8,93,29.58,5.0,NE,19.6,24.2,N/A,,Overcast,40,2013-08-08 09:16:00
1:36 AM,44.6,41.0,87,29.58,4.0,NE,21.9,26.5,N/A,,Overcast,40,2013-08-08 09:36:00
1:56 AM,42.8,41.0,93,29.58,1.8,NE,19.6,26.5,N/A,,Overcast,40,2013-08-08 09:56:00
2:16 AM,42.8,41.0,93,29.57,1.2,NE,21.9,-,N/A,,Overcast,40,2013-08-08 10:16:00
2:36 AM,42.8,41.0,93,29.58,0.5,NE,23.0,-,N/A,,Overcast,40,2013-08-08 10:36:00
2:56 AM,42.8,41.0,93,29.57,0.5,NE,20.7,-,N/A,,Overcast,40,2013-08-08 10:56:00
3:16 AM,42.8,41.0,93,29.57,3.0,NE,23.0,-,N/A,,Overcast,40,2013-08-08 11:16:00
3:36 AM,42.8,41.0,93,29.56,3.0,NNE,20.7,-,N/A,,Overcast,30,2013-08-08 11:36:00
3:56 AM,42.8,41.0,93,29.56,2.5,NE,20.7,-,N/A,,Overcast,40,2013-08-08 11:56:00
4:16 AM,42.8,41.0,93,29.56,2.0,NE,20.7,-,N/A,,Overcast,40,2013-08-08 12:16:00
4:36 AM,42.8,41.0,93,29.56,2.5,NE,20.7,-,N/A,,Overcast,40,2013-08-08 12:36:00
4:56 AM,42.8,41.0,93,29.56,2.5,NE,20.7,25.3,N/A,,Overcast,40,2013-08-08 12:56:00
5:16 AM,42.8,41.0,93,29.56,2.0,NE,19.6,-,N/A,,Overcast,40,2013-08-08 13:16:00
5:36 AM,42.8,41.0,93,29.56,2.5,NE,23.0,-,N/A,,Overcast,40,2013-08-08 13:36:00
5:56 AM,42.8,41.0,93,29.56,3.0,NE,21.9,-,N/A,,Overcast,40,2013-08-08 13:56:00
6:16 AM,42.8,41.0,93,29.56,2.5,NE,20.7,-,N/A,,Overcast,40,2013-08-08 14:16:00
6:36 AM,42.8,41.0,93,29.56,2.0,NE,21.9,-,N/A,,Overcast,50,2013-08-08 14:36:00
6:56 AM,42.8,39.2,87,29.57,2.0,NE,21.9,-,N/A,,Overcast,40,2013-08-08 14:56:00
7:16 AM,42.8,39.2,87,29.57,2.0,NE,19.6,-,N/A,,Overcast,40,2013-08-08 15:16:00
7:36 AM,42.8,39.2,87,29.57,2.5,NE,23.0,-,N/A,,Overcast,40,2013-08-08 15:36:00
7:56 AM,42.8,39.2,87,29.57,3.0,NE,24.2,-,0.01,,Overcast,50,2013-08-08 15:56:00
8:16 AM,42.8,39.2,87,29.58,3.0,NE,21.9,-,N/A,,Overcast,40,2013-08-08 16:16:00
8:36 AM,42.8,39.2,87,29.58,2.0,NE,21.9,-,N/A,,Overcast,40,2013-08-08 16:36:00
8:56 AM,42.8,39.2,87,29.59,2.5,NE,21.9,-,N/A,,Overcast,40,2013-08-08 16:56:00
9:16 AM,42.8,39.2,87,29.59,3.0,NE,19.6,-,N/A,,Overcast,40,2013-08-08 17:16:00
9:36 AM,42.8,39.2,87,29.58,2.0,NE,19.6,-,N/A,,Overcast,40,2013-08-08 17:36:00
9:56 AM,42.8,39.2,87,29.59,2.5,NE,20.7,-,N/A,,Overcast,40,2013-08-08 17:56:00
10:16 AM,42.8,39.2,87,29.59,5.0,NE,17.3,-,N/A,,Overcast,40,2013-08-08 18:16:00
10:36 AM,42.8,39.2,87,29.60,5.0,NE,16.1,-,N/A,,Overcast,40,2013-08-08 18:36:00
10:56 AM,42.8,39.2,87,29.60,3.0,NE,16.1,-,N/A,,Overcast,40,2013-08-08 18:56:00
11:16 AM,42.8,39.2,87,29.60,3.0,NE,15.0,-,0.01,,Overcast,40,2013-08-08 19:16:00
11:36 AM,42.8,39.2,87,29.60,3.0,NE,15.0,-,0.02,,Overcast,40,2013-08-08 19:36:00
11:56 AM,42.8,39.2,87,29.61,2.5,NE,13.8,-,0.09,,Overcast,40,2013-08-08 19:56:00
12:16 PM,41.0,39.2,93,29.61,3.0,NE,13.8,-,0.03,,Overcast,40,2013-08-08 20:16:00
12:36 PM,41.0,39.2,93,29.61,3.0,NE,12.7,-,0.05,,Overcast,40,2013-08-08 20:36:00
12:56 PM,41.0,39.2,93,29.61,2.5,NE,10.4,-,0.05,,Overcast,40,2013-08-08 20:56:00
1:16 PM,42.8,39.2,87,29.61,3.0,NNE,12.7,-,N/A,,Overcast,30,2013-08-08 21:16:00
1:36 PM,42.8,39.2,87,29.61,3.0,NNE,11.5,-,N/A,,Overcast,30,2013-08-08 21:36:00
1:56 PM,42.8,39.2,87,29.61,4.0,NE,11.5,-,N/A,,Overcast,40,2013-08-08 21:56:00
2:16 PM,42.8,39.2,87,29.61,5.0,NE,16.1,-,N/A,,Overcast,40,2013-08-08 22:16:00
2:36 PM,42.8,41.0,93,29.61,5.0,NE,15.0,-,0.01,,Overcast,40,2013-08-08 22:36:00
2:56 PM,42.8,39.2,87,29.61,5.0,NE,17.3,-,0.01,,Overcast,50,2013-08-08 22:56:00
3:16 PM,42.8,41.0,93,29.60,5.0,NE,13.8,-,N/A,,Overcast,40,2013-08-08 23:16:00
3:36 PM,42.8,39.2,87,29.60,6.0,NE,16.1,-,N/A,,Overcast,40,2013-08-08 23:36:00
3:56 PM,42.8,39.2,87,29.60,5.0,NE,13.8,-,N/A,,Overcast,40,2013-08-08 23:56:00
4:16 PM,42.8,39.2,87,29.61,5.0,NE,12.7,-,N/A,,Overcast,40,2013-08-09 00:16:00
4:36 PM,42.8,39.2,87,29.60,5.0,NE,15.0,-,N/A,,Overcast,40,2013-08-09 00:36:00
4:56 PM,42.8,39.2,87,29.60,5.0,NE,15.0,19.6,N/A,,Overcast,40,2013-08-09 00:56:00
5:16 PM,42.8,41.0,93,29.59,7.0,NE,12.7,-,N/A,,Overcast,40,2013-08-09 01:16:00
5:36 PM,42.8,41.0,93,29.60,5.0,NNE,10.4,-,N/A,,Overcast,30,2013-08-09 01:36:00
5:56 PM,44.6,41.0,87,29.59,5.0,NNE,10.4,-,0.01,,Overcast,20,2013-08-09 01:56:00
6:16 PM,44.6,42.8,93,29.59,5.0,NNE,12.7,-,N/A,,Overcast,20,2013-08-09 02:16:00
6:36 PM,44.6,42.8,93,29.58,5.0,NNE,18.4,-,N/A,,Overcast,20,2013-08-09 02:36:00
6:56 PM,44.6,41.0,87,29.58,4.0,NNE,17.3,-,0.02,,Overcast,20,2013-08-09 02:56:00
7:16 PM,44.6,42.8,93,29.58,5.0,NNE,18.4,-,0.01,,Overcast,20,2013-08-09 03:16:00
7:36 PM,44.6,42.8,93,29.57,4.0,NNE,20.7,-,0.01,,Overcast,20,2013-08-09 03:36:00
7:56 PM,44.6,41.0,87,29.57,5.0,North,23.0,-,0.01,,Overcast,10,2013-08-09 03:56:00
8:16 PM,44.6,41.0,87,29.57,5.0,North,23.0,26.5,0.01,,Overcast,10,2013-08-09 04:16:00
8:36 PM,44.6,41.0,87,29.57,5.0,North,21.9,-,0.02,,Overcast,10,2013-08-09 04:36:00
8:56 PM,44.6,41.0,87,29.57,4.0,North,25.3,-,0.04,,Overcast,10,2013-08-09 04:56:00
9:16 PM,44.6,41.0,87,29.56,4.0,North,27.6,-,0.01,,Overcast,10,2013-08-09 05:16:00
9:36 PM,44.6,41.0,87,29.56,5.0,North,26.5,-,0.02,,Overcast,10,2013-08-09 05:36:00
9:56 PM,44.6,39.2,81,29.56,4.0,North,24.2,-,0.02,,Overcast,10,2013-08-09 05:56:00
10:16 PM,42.8,39.2,87,29.56,4.0,North,25.3,-,0.02,,Overcast,10,2013-08-09 06:16:00
10:36 PM,42.8,39.2,87,29.55,3.0,North,24.2,-,0.03,,Overcast,10,2013-08-09 06:36:00
10:56 PM,42.8,39.2,87,29.55,3.0,North,25.3,-,0.05,,Overcast,10,2013-08-09 06:56:00
11:16 PM,42.8,39.2,87,29.55,2.0,North,25.3,31.1,N/A,,Overcast,10,2013-08-09 07:16:00
11:36 PM,42.8,39.2,87,29.55,2.5,North,27.6,-,0.01,,Overcast,10,2013-08-09 07:36:00
11:56 PM,42.8,39.2,87,29.55,1.5,North,27.6,-,0.02,,Overcast,10,2013-08-09 07:56:00